Location: Fort Worth, Tx
(32.7431°N, 97.3695°W)
Time: 11:42:13
(UTC-04:00)

Explorer 11/Cluster Stage 4 - Pass Details

Date: 24 February 2024
Orbit: 465 x 1219 km, 28.8° (Epoch: 24 April)

Event Time Altitude Azimuth Distance (km) Brightness Sun altitude
Exits shadow 06:52:10 22° 256° (WSW) 1,936 8.0 -15.7°
Maximum altitude 06:55:52 42° 198° (SSW) 1,193 7.3 -15.0°
Drops below altitude 10° 07:00:55 10° 128° (SE) 2,240 9.8 -13.9°
Sets 07:03:12 0° 121° (ESE) 3,044 10.8 -13.4°
